Time,TemperatureF,DewpointF,PressureIn,WindDirection,WindDirectionDegrees,WindSpeedMPH,WindSpeedGustMPH,Humidity,HourlyPrecipIn,Conditions,Clouds,dailyrainin,SoftwareType,DateUTC
2013-11-09 00:00:00,30.8,22.2,29.76,WNW,295,4.0,4.0,70,0.00,,,0.01,Wunderground v.1.15,2013-11-09 05:00:00,
2013-11-09 00:05:00,30.8,22.2,29.76,NW,322,4.0,6.0,70,0.00,,,0.00,Wunderground v.1.15,2013-11-09 05:05:00,
2013-11-09 00:10:00,30.8,22.2,29.76,NW,315,5.0,5.0,70,0.00,,,0.00,Wunderground v.1.15,2013-11-09 05:10:00,
2013-11-09 00:15:00,30.8,22.2,29.76,WNW,295,5.0,7.0,70,0.00,,,0.00,Wunderground v.1.15,2013-11-09 05:15:00,
2013-11-09 00:20:00,30.8,22.2,29.76,WNW,302,6.0,8.0,70,0.00,,,0.00,Wunderground v.1.15,2013-11-09 05:20:00,
2013-11-09 00:25:00,30.9,22.3,29.76,NNW,333,7.0,8.0,70,0.00,,,0.00,Wunderground v.1.15,2013-11-09 05:25:00,
2013-11-09 00:30:00,30.9,21.9,29.76,WNW,298,7.0,7.0,69,0.00,,,0.00,Wunderground v.1.15,2013-11-09 05:30:00,
2013-11-09 00:40:00,30.8,21.8,29.76,NW,322,5.0,12.0,69,0.00,,,0.00,Wunderground v.1.15,2013-11-09 05:40:00,
2013-11-09 00:50:00,30.8,21.8,29.76,NW,307,7.0,7.0,69,0.00,,,0.00,Wunderground v.1.15,2013-11-09 05:50:00,
2013-11-09 01:00:00,30.5,21.5,29.76,West,275,5.0,12.0,69,0.00,,,0.00,Wunderground v.1.15,2013-11-09 06:00:00,
2013-11-09 01:10:00,30.5,21.5,29.76,NW,319,7.0,7.0,69,0.00,,,0.00,Wunderground v.1.15,2013-11-09 06:10:00,
2013-11-09 01:15:00,30.5,21.5,29.77,NNW,340,6.0,7.0,69,0.00,,,0.00,Wunderground v.1.15,2013-11-09 06:15:00,
2013-11-09 01:20:00,30.5,21.5,29.77,NW,306,4.0,7.0,69,0.00,,,0.00,Wunderground v.1.15,2013-11-09 06:20:00,
2013-11-09 01:25:00,30.6,21.6,29.77,WNW,293,6.0,7.0,69,0.00,,,0.00,Wunderground v.1.15,2013-11-09 06:25:00,
2013-11-09 01:35:00,30.6,21.6,29.77,NW,309,4.0,6.0,69,0.00,,,0.00,Wunderground v.1.15,2013-11-09 06:35:00,
2013-11-09 01:40:00,30.6,21.6,29.77,WNW,290,4.0,8.0,69,0.00,,,0.00,Wunderground v.1.15,2013-11-09 06:40:00,
2013-11-09 01:50:00,30.8,21.5,29.77,WNW,296,6.0,8.0,68,0.00,,,0.00,Wunderground v.1.15,2013-11-09 06:50:00,
2013-11-09 02:00:00,30.9,21.2,29.77,WNW,286,7.0,7.0,67,0.00,,,0.00,Wunderground v.1.15,2013-11-09 07:00:00,
2013-11-09 02:10:00,30.9,21.6,29.77,NW,309,6.0,9.0,68,0.00,,,0.00,Wunderground v.1.15,2013-11-09 07:10:00,
2013-11-09 02:20:00,31.1,21.1,29.78,WNW,291,7.0,8.0,66,0.00,,,0.00,Wunderground v.1.15,2013-11-09 07:20:00,
2013-11-09 02:30:00,31.2,21.2,29.78,NNW,342,7.0,7.0,66,0.00,,,0.00,Wunderground v.1.15,2013-11-09 07:30:00,
2013-11-09 02:40:00,31.0,21.7,29.78,NW,318,4.0,4.0,68,0.00,,,0.00,Wunderground v.1.15,2013-11-09 07:40:00,
2013-11-09 02:50:00,31.0,22.0,29.78,NW,306,6.0,11.0,69,0.00,,,0.00,Wunderground v.1.15,2013-11-09 07:50:00,
2013-11-09 03:00:00,31.0,22.4,29.78,NW,315,8.0,8.0,70,0.00,,,0.00,Wunderground v.1.15,2013-11-09 08:00:00,
2013-11-09 03:10:00,30.9,22.3,29.79,WNW,299,8.0,11.0,70,0.00,,,0.00,Wunderground v.1.15,2013-11-09 08:10:00,
2013-11-09 03:20:00,31.0,22.4,29.79,WNW,300,9.0,10.0,70,0.00,,,0.00,Wunderground v.1.15,2013-11-09 08:20:00,
2013-11-09 03:30:00,30.8,22.2,29.80,NW,315,8.0,8.0,70,0.00,,,0.00,Wunderground v.1.15,2013-11-09 08:30:00,
2013-11-09 03:35:00,30.7,22.1,29.80,NW,313,7.0,8.0,70,0.00,,,0.00,Wunderground v.1.15,2013-11-09 08:35:00,
2013-11-09 03:45:00,30.7,21.7,29.80,NW,310,7.0,7.0,69,0.00,,,0.00,Wunderground v.1.15,2013-11-09 08:45:00,
2013-11-09 03:50:00,30.7,21.7,29.80,NNW,332,7.0,7.0,69,0.00,,,0.00,Wunderground v.1.15,2013-11-09 08:50:00,
2013-11-09 03:55:00,30.7,21.4,29.80,WNW,301,7.0,7.0,68,0.00,,,0.00,Wunderground v.1.15,2013-11-09 08:55:00,
2013-11-09 04:05:00,30.7,21.7,29.81,WNW,291,4.0,12.0,69,0.00,,,0.00,Wunderground v.1.15,2013-11-09 09:05:00,
2013-11-09 04:10:00,30.6,21.6,29.81,NNW,329,4.0,7.0,69,0.00,,,0.00,Wunderground v.1.15,2013-11-09 09:10:00,
2013-11-09 04:15:00,30.6,21.6,29.81,North,10,4.0,7.0,69,0.00,,,0.00,Wunderground v.1.15,2013-11-09 09:15:00,
2013-11-09 04:20:00,30.6,21.6,29.82,NNE,14,4.0,4.0,69,0.00,,,0.00,Wunderground v.1.15,2013-11-09 09:20:00,
2013-11-09 04:25:00,30.6,21.6,29.82,NNE,15,4.0,4.0,69,0.00,,,0.00,Wunderground v.1.15,2013-11-09 09:25:00,
2013-11-09 04:30:00,30.6,21.6,29.82,NW,317,3.0,3.0,69,0.00,,,0.00,Wunderground v.1.15,2013-11-09 09:30:00,
2013-11-09 04:35:00,30.5,21.2,29.82,WNW,294,4.0,9.0,68,0.00,,,0.00,Wunderground v.1.15,2013-11-09 09:35:00,
2013-11-09 04:40:00,30.6,21.6,29.82,NW,321,6.0,6.0,69,0.00,,,0.00,Wunderground v.1.15,2013-11-09 09:40:00,
2013-11-09 04:45:00,30.6,21.3,29.82,North,351,7.0,7.0,68,0.00,,,0.00,Wunderground v.1.15,2013-11-09 09:45:00,
2013-11-09 04:50:00,30.6,21.3,29.82,NNW,328,7.0,8.0,68,0.00,,,0.00,Wunderground v.1.15,2013-11-09 09:50:00,
2013-11-09 04:55:00,30.5,21.2,29.82,West,268,7.0,8.0,68,0.00,,,0.00,Wunderground v.1.15,2013-11-09 09:55:00,
2013-11-09 05:00:00,30.5,21.5,29.82,WNW,294,6.0,6.0,69,0.00,,,0.00,Wunderground v.1.15,2013-11-09 10:00:00,
2013-11-09 05:10:00,30.5,21.2,29.82,NW,313,4.0,4.0,68,0.00,,,0.00,Wunderground v.1.15,2013-11-09 10:10:00,
2013-11-09 05:20:00,30.4,21.4,29.82,West,274,5.0,5.0,69,0.00,,,0.00,Wunderground v.1.15,2013-11-09 10:20:00,
2013-11-09 05:25:00,30.5,21.2,29.82,NW,308,5.0,5.0,68,0.00,,,0.00,Wunderground v.1.15,2013-11-09 10:25:00,
2013-11-09 05:30:00,30.4,21.4,29.82,NW,306,5.0,8.0,69,0.00,,,0.00,Wunderground v.1.15,2013-11-09 10:30:00,
2013-11-09 05:35:00,30.5,21.2,29.83,NNW,343,7.0,8.0,68,0.00,,,0.00,Wunderground v.1.15,2013-11-09 10:35:00,
2013-11-09 05:40:00,30.5,21.2,29.82,NNW,346,8.0,8.0,68,0.00,,,0.00,Wunderground v.1.15,2013-11-09 10:40:00,
2013-11-09 05:50:00,30.5,20.8,29.83,NW,314,5.0,5.0,67,0.00,,,0.00,Wunderground v.1.15,2013-11-09 10:50:00,
2013-11-09 06:00:00,30.5,21.2,29.83,NW,313,6.0,6.0,68,0.00,,,0.00,Wunderground v.1.15,2013-11-09 11:00:00,
2013-11-09 06:05:00,30.5,21.2,29.83,ENE,69,5.0,6.0,68,0.00,,,0.00,Wunderground v.1.15,2013-11-09 11:05:00,
2013-11-09 06:15:00,30.4,21.1,29.83,WNW,298,6.0,10.0,68,0.00,,,0.00,Wunderground v.1.15,2013-11-09 11:15:00,
2013-11-09 06:20:00,30.5,20.8,29.83,NW,319,7.0,9.0,67,0.00,,,0.00,Wunderground v.1.15,2013-11-09 11:20:00,
2013-11-09 06:25:00,30.5,20.8,29.83,WNW,286,7.0,9.0,67,0.00,,,0.00,Wunderground v.1.15,2013-11-09 11:25:00,
2013-11-09 06:35:00,30.4,21.1,29.83,West,279,6.0,6.0,68,0.00,,,0.00,Wunderground v.1.15,2013-11-09 11:35:00,
2013-11-09 06:40:00,30.3,21.0,29.83,NW,316,5.0,5.0,68,0.00,,,0.00,Wunderground v.1.15,2013-11-09 11:40:00,
2013-11-09 06:50:00,30.3,21.0,29.84,WNW,285,6.0,6.0,68,0.00,,,0.00,Wunderground v.1.15,2013-11-09 11:50:00,
2013-11-09 06:55:00,30.3,21.0,29.84,WNW,288,6.0,11.0,68,0.00,,,0.00,Wunderground v.1.15,2013-11-09 11:55:00,
2013-11-09 07:00:00,30.4,21.1,29.84,WNW,302,7.0,7.0,68,0.00,,,0.00,Wunderground v.1.15,2013-11-09 12:00:00,
2013-11-09 07:10:00,30.4,21.1,29.84,WNW,294,7.0,7.0,68,0.00,,,0.00,Wunderground v.1.15,2013-11-09 12:10:00,
2013-11-09 07:20:00,30.4,21.1,29.84,North,355,4.0,4.0,68,0.00,,,0.00,Wunderground v.1.15,2013-11-09 12:20:00,
2013-11-09 07:30:00,30.4,21.4,29.85,North,11,5.0,5.0,69,0.00,,,0.00,Wunderground v.1.15,2013-11-09 12:30:00,
2013-11-09 07:40:00,30.5,21.5,29.85,WNW,293,3.0,3.0,69,0.00,,,0.00,Wunderground v.1.15,2013-11-09 12:40:00,
2013-11-09 07:50:00,30.7,21.4,29.85,WNW,284,4.0,4.0,68,0.00,,,0.00,Wunderground v.1.15,2013-11-09 12:50:00,
2013-11-09 07:55:00,30.8,21.5,29.85,NW,321,4.0,8.0,68,0.00,,,0.00,Wunderground v.1.15,2013-11-09 12:55:00,
2013-11-09 08:00:00,30.8,21.1,29.85,WNW,292,5.0,5.0,67,0.00,,,0.00,Wunderground v.1.15,2013-11-09 13:00:00,
2013-11-09 08:10:00,31.2,21.9,29.86,NW,307,5.0,10.0,68,0.00,,,0.00,Wunderground v.1.15,2013-11-09 13:10:00,
2013-11-09 08:20:00,31.3,21.6,29.86,WNW,297,6.0,6.0,67,0.00,,,0.00,Wunderground v.1.15,2013-11-09 13:20:00,
2013-11-09 08:30:00,31.5,21.8,29.86,NNW,334,7.0,11.0,67,0.00,,,0.00,Wunderground v.1.15,2013-11-09 13:30:00,
2013-11-09 08:35:00,31.9,21.8,29.86,WNW,299,7.0,11.0,66,0.00,,,0.00,Wunderground v.1.15,2013-11-09 13:35:00,
2013-11-09 08:45:00,32.8,22.3,29.86,WNW,288,7.0,9.0,65,0.00,,,0.00,Wunderground v.1.15,2013-11-09 13:45:00,
2013-11-09 08:50:00,33.0,22.1,29.86,NW,326,8.0,8.0,64,0.00,,,0.00,Wunderground v.1.15,2013-11-09 13:50:00,
2013-11-09 09:00:00,32.0,21.6,29.86,NW,316,10.0,12.0,65,0.00,,,0.00,Wunderground v.1.15,2013-11-09 14:00:00,
2013-11-09 09:10:00,32.0,21.9,29.86,West,277,8.0,8.0,66,0.00,,,0.00,Wunderground v.1.15,2013-11-09 14:10:00,
2013-11-09 09:20:00,32.2,22.8,29.86,WNW,298,7.0,7.0,68,0.00,,,0.00,Wunderground v.1.15,2013-11-09 14:20:00,
2013-11-09 09:30:00,32.3,22.2,29.86,NW,308,5.0,9.0,66,0.00,,,0.00,Wunderground v.1.15,2013-11-09 14:30:00,
2013-11-09 09:35:00,32.2,22.5,29.86,WNW,303,7.0,9.0,67,0.00,,,0.00,Wunderground v.1.15,2013-11-09 14:35:00,
2013-11-09 09:40:00,32.6,22.5,29.86,WNW,283,9.0,12.0,66,0.00,,,0.00,Wunderground v.1.15,2013-11-09 14:40:00,
2013-11-09 09:45:00,32.5,22.4,29.86,WNW,292,8.0,12.0,66,0.00,,,0.00,Wunderground v.1.15,2013-11-09 14:45:00,
2013-11-09 09:50:00,32.5,22.8,29.86,WNW,296,7.0,7.0,67,0.00,,,0.00,Wunderground v.1.15,2013-11-09 14:50:00,
2013-11-09 10:00:00,32.2,21.7,29.86,WNW,285,5.0,5.0,65,0.00,,,0.00,Wunderground v.1.15,2013-11-09 15:00:00,
2013-11-09 10:05:00,32.3,22.2,29.86,NW,307,5.0,5.0,66,0.00,,,0.00,Wunderground v.1.15,2013-11-09 15:05:00,
2013-11-09 10:10:00,32.4,22.3,29.86,NW,323,4.0,4.0,66,0.00,,,0.00,Wunderground v.1.15,2013-11-09 15:10:00,
2013-11-09 10:15:00,32.6,22.1,29.85,West,268,4.0,4.0,65,0.00,,,0.00,Wunderground v.1.15,2013-11-09 15:15:00,
2013-11-09 10:20:00,33.0,23.6,29.85,WNW,285,5.0,6.0,68,0.00,,,0.00,Wunderground v.1.15,2013-11-09 15:20:00,
2013-11-09 10:30:00,33.4,23.3,29.85,WSW,254,7.0,7.0,66,0.00,,,0.00,Wunderground v.1.15,2013-11-09 15:30:00,
2013-11-09 10:40:00,33.9,23.4,29.85,NW,309,6.0,6.0,65,0.00,,,0.00,Wunderground v.1.15,2013-11-09 15:40:00,
2013-11-09 10:45:00,33.7,22.4,29.85,NW,307,7.0,9.0,63,0.00,,,0.00,Wunderground v.1.15,2013-11-09 15:45:00,
2013-11-09 10:50:00,33.8,22.9,29.85,West,281,9.0,9.0,64,0.00,,,0.00,Wunderground v.1.15,2013-11-09 15:50:00,
2013-11-09 11:00:00,35.0,24.0,29.84,NW,306,7.0,9.0,64,0.00,,,0.00,Wunderground v.1.15,2013-11-09 16:00:00,
2013-11-09 11:05:00,34.7,23.0,29.84,West,268,7.0,9.0,62,0.00,,,0.00,Wunderground v.1.15,2013-11-09 16:05:00,
2013-11-09 11:15:00,34.6,23.7,29.84,WNW,292,5.0,7.0,64,0.00,,,0.00,Wunderground v.1.15,2013-11-09 16:15:00,
2013-11-09 11:20:00,34.9,23.6,29.84,WNW,283,3.0,12.0,63,0.00,,,0.00,Wunderground v.1.15,2013-11-09 16:20:00,
2013-11-09 11:25:00,35.1,23.0,29.84,WNW,283,6.0,12.0,61,0.00,,,0.00,Wunderground v.1.15,2013-11-09 16:25:00,
2013-11-09 11:35:00,35.1,23.0,29.83,WNW,300,7.0,7.0,61,0.00,,,0.00,Wunderground v.1.15,2013-11-09 16:35:00,
2013-11-09 11:40:00,34.6,21.7,29.83,WNW,284,8.0,8.0,59,0.00,,,0.00,Wunderground v.1.15,2013-11-09 16:40:00,
2013-11-09 11:50:00,34.6,22.5,29.83,WSW,249,6.0,6.0,61,0.00,,,0.00,Wunderground v.1.15,2013-11-09 16:50:00,
2013-11-09 11:55:00,34.8,22.7,29.83,West,276,5.0,6.0,61,0.00,,,0.00,Wunderground v.1.15,2013-11-09 16:55:00,
2013-11-09 12:00:00,34.8,22.7,29.83,NW,317,4.0,10.0,61,0.00,,,0.00,Wunderground v.1.15,2013-11-09 17:00:00,
2013-11-09 12:05:00,34.5,22.4,29.83,WSW,256,6.0,10.0,61,0.00,,,0.00,Wunderground v.1.15,2013-11-09 17:05:00,
2013-11-09 12:15:00,34.4,23.1,29.83,West,272,5.0,8.0,63,0.00,,,0.00,Wunderground v.1.15,2013-11-09 17:15:00,
2013-11-09 12:20:00,34.4,22.7,29.82,WNW,284,5.0,10.0,62,0.00,,,0.00,Wunderground v.1.15,2013-11-09 17:20:00,
2013-11-09 12:25:00,34.5,22.8,29.82,NNW,334,6.0,10.0,62,0.00,,,0.00,Wunderground v.1.15,2013-11-09 17:25:00,
2013-11-09 12:30:00,34.7,23.0,29.82,NW,317,5.0,5.0,62,0.00,,,0.00,Wunderground v.1.15,2013-11-09 17:30:00,
2013-11-09 12:40:00,34.6,22.5,29.81,West,280,6.0,13.0,61,0.00,,,0.00,Wunderground v.1.15,2013-11-09 17:40:00,
2013-11-09 12:50:00,34.6,23.3,29.82,NW,308,5.0,5.0,63,0.00,,,0.00,Wunderground v.1.15,2013-11-09 17:50:00,
2013-11-09 12:55:00,34.5,22.4,29.81,North,355,4.0,8.0,61,0.00,,,0.00,Wunderground v.1.15,2013-11-09 17:55:00,
2013-11-09 13:00:00,34.4,23.1,29.81,NW,309,5.0,5.0,63,0.00,,,0.00,Wunderground v.1.15,2013-11-09 18:00:00,
2013-11-09 13:10:00,34.2,22.5,29.81,West,271,5.0,5.0,62,0.00,,,0.00,Wunderground v.1.15,2013-11-09 18:10:00,
2013-11-09 13:20:00,34.4,23.1,29.80,SW,232,3.0,3.0,63,0.00,,,0.00,Wunderground v.1.15,2013-11-09 18:20:00,
2013-11-09 13:30:00,34.4,22.3,29.80,NW,306,3.0,3.0,61,0.00,,,0.00,Wunderground v.1.15,2013-11-09 18:30:00,
2013-11-09 13:35:00,34.4,22.3,29.80,WNW,295,4.0,4.0,61,0.00,,,0.00,Wunderground v.1.15,2013-11-09 18:35:00,
2013-11-09 13:40:00,34.4,23.1,29.80,NW,309,4.0,4.0,63,0.00,,,0.00,Wunderground v.1.15,2013-11-09 18:40:00,
2013-11-09 13:49:00,34.5,22.4,29.79,WNW,290,2.0,2.0,61,0.00,,,0.00,Wunderground v.1.15,2013-11-09 18:49:00,
2013-11-09 13:55:00,34.6,22.9,29.79,WNW,292,1.0,2.0,62,0.00,,,0.00,Wunderground v.1.15,2013-11-09 18:55:00,
2013-11-09 14:00:00,34.7,22.6,29.79,NNW,333,1.0,1.0,61,0.00,,,0.00,Wunderground v.1.15,2013-11-09 19:00:00,
2013-11-09 14:10:00,34.7,23.0,29.78,SSW,207,1.0,1.0,62,0.00,,,0.00,Wunderground v.1.15,2013-11-09 19:10:00,
2013-11-09 14:15:00,34.6,22.9,29.78,North,360,1.0,1.0,62,0.00,,,0.00,Wunderground v.1.15,2013-11-09 19:15:00,
2013-11-09 14:25:00,34.7,22.6,29.78,NW,304,2.0,4.0,61,0.00,,,0.00,Wunderground v.1.15,2013-11-09 19:25:00,
2013-11-09 14:30:00,34.7,23.0,29.78,NW,319,2.0,2.0,62,0.00,,,0.00,Wunderground v.1.15,2013-11-09 19:30:00,
2013-11-09 14:40:00,34.6,22.5,29.78,NNW,344,0.0,0.0,61,0.00,,,0.00,Wunderground v.1.15,2013-11-09 19:40:00,
2013-11-09 14:50:00,34.6,22.5,29.77,NNW,344,1.0,1.0,61,0.00,,,0.00,Wunderground v.1.15,2013-11-09 19:50:00,
2013-11-09 15:00:00,34.8,22.3,29.77,West,279,1.0,1.0,60,0.00,,,0.00,Wunderground v.1.15,2013-11-09 20:00:00,
2013-11-09 15:10:00,35.4,23.3,29.77,West,279,0.0,0.0,61,0.00,,,0.00,Wunderground v.1.15,2013-11-09 20:10:00,
2013-11-09 15:15:00,35.8,23.3,29.77,West,279,0.0,0.0,60,0.00,,,0.00,Wunderground v.1.15,2013-11-09 20:15:00,
2013-11-09 15:20:00,36.2,22.4,29.77,SW,215,1.0,1.0,57,0.00,,,0.00,Wunderground v.1.15,2013-11-09 20:20:00,
2013-11-09 15:30:00,36.4,22.6,29.76,SW,223,1.0,1.0,57,0.00,,,0.00,Wunderground v.1.15,2013-11-09 20:30:00,
2013-11-09 15:35:00,36.1,22.7,29.76,West,281,1.0,2.0,58,0.00,,,0.00,Wunderground v.1.15,2013-11-09 20:35:00,
2013-11-09 15:40:00,35.7,22.4,29.76,West,280,2.0,2.0,58,0.00,,,0.00,Wunderground v.1.15,2013-11-09 20:40:00,
2013-11-09 15:50:00,35.2,22.3,29.76,West,280,0.0,0.0,59,0.00,,,0.00,Wunderground v.1.15,2013-11-09 20:50:00,
2013-11-09 15:55:00,35.3,22.0,29.76,West,280,0.0,0.0,58,0.00,,,0.00,Wunderground v.1.15,2013-11-09 20:55:00,
2013-11-09 16:05:00,35.3,22.0,29.76,West,280,0.0,0.0,58,0.00,,,0.00,Wunderground v.1.15,2013-11-09 21:05:00,
2013-11-09 16:15:00,35.0,22.5,29.76,West,280,0.0,0.0,60,0.00,,,0.00,Wunderground v.1.15,2013-11-09 21:15:00,
2013-11-09 16:25:00,34.4,21.9,29.76,West,280,0.0,0.0,60,0.00,,,0.00,Wunderground v.1.15,2013-11-09 21:25:00,
2013-11-09 16:30:00,34.2,21.7,29.76,West,280,0.0,0.0,60,0.00,,,0.00,Wunderground v.1.15,2013-11-09 21:30:00,
2013-11-09 16:40:00,33.8,22.1,29.76,West,280,0.0,0.0,62,0.00,,,0.00,Wunderground v.1.15,2013-11-09 21:40:00,
2013-11-09 16:50:00,33.3,21.7,29.76,West,280,0.0,0.0,62,0.00,,,0.00,Wunderground v.1.15,2013-11-09 21:50:00,
2013-11-09 16:55:00,33.2,22.0,29.76,West,280,0.0,0.0,63,0.00,,,0.00,Wunderground v.1.15,2013-11-09 21:55:00,
2013-11-09 17:00:00,33.0,22.1,29.76,West,280,0.0,0.0,64,0.00,,,0.00,Wunderground v.1.15,2013-11-09 22:00:00,
2013-11-09 17:10:00,32.8,22.3,29.76,West,280,0.0,0.0,65,0.00,,,0.00,Wunderground v.1.15,2013-11-09 22:10:00,
2013-11-09 17:20:00,32.5,22.4,29.77,West,280,0.0,0.0,66,0.00,,,0.00,Wunderground v.1.15,2013-11-09 22:20:00,
2013-11-09 17:30:00,32.2,23.2,29.77,West,280,0.0,0.0,69,0.00,,,0.00,Wunderground v.1.15,2013-11-09 22:30:00,
2013-11-09 17:35:00,32.1,22.4,29.77,West,280,0.0,0.0,67,0.00,,,0.00,Wunderground v.1.15,2013-11-09 22:35:00,
2013-11-09 17:40:00,32.3,22.6,29.77,West,280,0.0,0.0,67,0.00,,,0.00,Wunderground v.1.15,2013-11-09 22:40:00,
2013-11-09 17:45:00,32.4,22.3,29.76,West,280,0.0,0.0,66,0.00,,,0.00,Wunderground v.1.15,2013-11-09 22:45:00,
2013-11-09 17:50:00,32.4,22.3,29.76,West,280,0.0,0.0,66,0.00,,,0.00,Wunderground v.1.15,2013-11-09 22:50:00,
2013-11-09 18:00:00,32.3,22.6,29.76,West,280,0.0,0.0,67,0.00,,,0.00,Wunderground v.1.15,2013-11-09 23:00:00,
2013-11-09 18:10:00,32.3,22.6,29.76,West,280,0.0,0.0,67,0.00,,,0.00,Wunderground v.1.15,2013-11-09 23:10:00,
2013-11-09 18:20:00,32.3,23.3,29.76,West,280,0.0,0.0,69,0.00,,,0.00,Wunderground v.1.15,2013-11-09 23:20:00,
2013-11-09 18:30:00,32.2,24.2,29.76,West,280,0.0,0.0,72,0.00,,,0.00,Wunderground v.1.15,2013-11-09 23:30:00,
2013-11-09 18:40:00,32.0,24.0,29.76,West,280,0.0,0.0,72,0.00,,,0.00,Wunderground v.1.15,2013-11-09 23:40:00,
2013-11-09 18:45:00,31.9,24.9,29.76,West,280,0.0,0.0,75,0.00,,,0.00,Wunderground v.1.15,2013-11-09 23:45:00,
2013-11-09 18:55:00,31.7,24.4,29.76,West,280,0.0,0.0,74,0.00,,,0.00,Wunderground v.1.15,2013-11-09 23:55:00,
2013-11-09 19:00:00,31.6,24.6,29.76,West,280,0.0,0.0,75,0.00,,,0.00,Wunderground v.1.15,2013-11-10 00:00:00,
2013-11-09 19:05:00,31.7,24.0,29.76,West,280,0.0,0.0,73,0.00,,,0.00,Wunderground v.1.15,2013-11-10 00:05:00,
2013-11-09 19:10:00,31.9,23.9,29.76,West,280,0.0,0.0,72,0.00,,,0.00,Wunderground v.1.15,2013-11-10 00:10:00,
2013-11-09 19:20:00,31.9,24.9,29.75,West,280,0.0,0.0,75,0.00,,,0.00,Wunderground v.1.15,2013-11-10 00:20:00,
2013-11-09 19:30:00,31.6,24.9,29.76,West,280,0.0,0.0,76,0.00,,,0.00,Wunderground v.1.15,2013-11-10 00:30:00,
2013-11-09 19:40:00,31.7,26.2,29.75,NNW,348,1.0,1.0,80,0.00,,,0.00,Wunderground v.1.15,2013-11-10 00:40:00,
2013-11-09 19:45:00,31.5,25.4,29.75,North,355,1.0,1.0,78,0.00,,,0.00,Wunderground v.1.15,2013-11-10 00:45:00,
2013-11-09 19:50:00,31.5,24.2,29.75,North,355,1.0,1.0,74,0.00,,,0.00,Wunderground v.1.15,2013-11-10 00:50:00,
2013-11-09 19:55:00,31.5,25.1,29.75,North,355,0.0,1.0,77,0.00,,,0.00,Wunderground v.1.15,2013-11-10 00:55:00,
2013-11-09 20:00:00,31.6,23.9,29.75,North,355,0.0,0.0,73,0.00,,,0.00,Wunderground v.1.15,2013-11-10 01:00:00,
2013-11-09 20:10:00,31.8,23.8,29.75,North,355,0.0,0.0,72,0.00,,,0.00,Wunderground v.1.15,2013-11-10 01:10:00,
2013-11-09 20:15:00,31.9,25.5,29.75,North,355,0.0,0.0,77,0.00,,,0.00,Wunderground v.1.15,2013-11-10 01:15:00,
2013-11-09 20:25:00,31.8,25.4,29.75,North,355,0.0,0.0,77,0.00,,,0.00,Wunderground v.1.15,2013-11-10 01:25:00,
2013-11-09 20:30:00,31.8,26.3,29.75,North,355,0.0,0.0,80,0.00,,,0.00,Wunderground v.1.15,2013-11-10 01:30:00,
2013-11-09 20:35:00,31.7,25.6,29.75,North,355,0.0,0.0,78,0.00,,,0.00,Wunderground v.1.15,2013-11-10 01:35:00,
2013-11-09 20:40:00,31.7,25.0,29.75,North,355,0.0,0.0,76,0.00,,,0.00,Wunderground v.1.15,2013-11-10 01:40:00,
2013-11-09 20:45:00,31.8,24.8,29.75,North,355,0.0,0.0,75,0.00,,,0.00,Wunderground v.1.15,2013-11-10 01:45:00,
2013-11-09 20:50:00,31.9,25.5,29.75,North,355,0.0,0.0,77,0.00,,,0.00,Wunderground v.1.15,2013-11-10 01:50:00,
2013-11-09 20:55:00,31.9,24.6,29.75,North,355,0.0,0.0,74,0.00,,,0.00,Wunderground v.1.15,2013-11-10 01:55:00,
2013-11-09 21:05:00,31.8,26.0,29.75,North,355,1.0,1.0,79,0.00,,,0.00,Wunderground v.1.15,2013-11-10 02:05:00,
2013-11-09 21:10:00,31.6,26.4,29.75,North,355,2.0,2.0,81,0.00,,,0.00,Wunderground v.1.15,2013-11-10 02:10:00,
2013-11-09 21:20:00,31.3,25.5,29.75,North,351,0.0,0.0,79,0.00,,,0.00,Wunderground v.1.15,2013-11-10 02:20:00,
2013-11-09 21:30:00,31.4,24.7,29.75,North,351,0.0,0.0,76,0.00,,,0.00,Wunderground v.1.15,2013-11-10 02:30:00,
2013-11-09 21:35:00,31.4,24.7,29.74,North,351,0.0,0.0,76,0.00,,,0.00,Wunderground v.1.15,2013-11-10 02:35:00,
2013-11-09 21:45:00,31.6,24.6,29.74,North,355,0.0,0.0,75,0.00,,,0.00,Wunderground v.1.15,2013-11-10 02:45:00,
2013-11-09 21:50:00,31.7,23.7,29.74,North,355,0.0,0.0,72,0.00,,,0.00,Wunderground v.1.15,2013-11-10 02:50:00,
2013-11-09 21:55:00,31.8,24.5,29.74,North,355,0.0,0.0,74,0.00,,,0.00,Wunderground v.1.15,2013-11-10 02:55:00,
2013-11-09 22:00:00,31.9,24.6,29.73,North,355,0.0,0.0,74,0.00,,,0.00,Wunderground v.1.15,2013-11-10 03:00:00,
2013-11-09 22:05:00,31.9,24.6,29.73,NE,34,0.0,2.0,74,0.00,,,0.00,Wunderground v.1.15,2013-11-10 03:05:00,
2013-11-09 22:10:00,31.9,24.6,29.73,East,84,0.0,0.0,74,0.00,,,0.00,Wunderground v.1.15,2013-11-10 03:10:00,
2013-11-09 22:15:00,31.9,25.2,29.73,East,84,0.0,0.0,76,0.00,,,0.00,Wunderground v.1.15,2013-11-10 03:15:00,
2013-11-09 22:25:00,32.1,25.7,29.72,South,172,2.0,8.0,77,0.00,,,0.00,Wunderground v.1.15,2013-11-10 03:25:00,
2013-11-09 22:30:00,32.3,26.8,29.72,South,182,3.0,3.0,80,0.00,,,0.00,Wunderground v.1.15,2013-11-10 03:30:00,
2013-11-09 22:35:00,32.2,27.0,29.71,SSE,167,3.0,3.0,81,0.00,,,0.00,Wunderground v.1.15,2013-11-10 03:35:00,
2013-11-09 22:45:00,32.0,27.1,29.71,SSW,194,1.0,2.0,82,0.00,,,0.00,Wunderground v.1.15,2013-11-10 03:45:00,
2013-11-09 22:50:00,31.9,27.3,29.70,SSW,194,1.0,1.0,83,0.00,,,0.00,Wunderground v.1.15,2013-11-10 03:50:00,
2013-11-09 22:55:00,31.9,27.6,29.70,SSW,194,0.0,1.0,84,0.00,,,0.00,Wunderground v.1.15,2013-11-10 03:55:00,
2013-11-09 23:00:00,31.7,27.4,29.70,SSW,194,0.0,1.0,84,0.00,,,0.00,Wunderground v.1.15,2013-11-10 04:00:00,
2013-11-09 23:10:00,31.6,27.6,29.69,SSW,194,0.0,0.0,85,0.00,,,0.00,Wunderground v.1.15,2013-11-10 04:10:00,
2013-11-09 23:20:00,31.5,27.8,29.69,SSW,194,0.0,0.0,86,0.00,,,0.00,Wunderground v.1.15,2013-11-10 04:20:00,
2013-11-09 23:25:00,31.5,28.1,29.68,SSW,194,0.0,0.0,87,0.00,,,0.00,Wunderground v.1.15,2013-11-10 04:25:00,
2013-11-09 23:35:00,31.4,28.0,29.68,SSW,194,0.0,0.0,87,0.00,,,0.00,Wunderground v.1.15,2013-11-10 04:35:00,
2013-11-09 23:40:00,31.4,28.0,29.68,SSW,194,0.0,0.0,87,0.00,,,0.00,Wunderground v.1.15,2013-11-10 04:40:00,
2013-11-09 23:45:00,31.4,28.0,29.68,SSW,194,0.0,0.0,87,0.00,,,0.00,Wunderground v.1.15,2013-11-10 04:45:00,
2013-11-09 23:55:00,31.3,28.2,29.67,SSW,200,0.0,0.0,88,0.00,,,0.00,Wunderground v.1.15,2013-11-10 04:55:00,